CW6238 Weather Reports


Display with metric or nautical units.
time (UTC)temp
F
wind
direction
speed
MPH
gust
MPH
rain 1hr
in
rain 24hr
in
rain mn
in
humidity
%
barometer
mb
20260502190519 67 270 3.0 9.0 0.00 0.00 0.00 40 1002.4
20260502185519 68 293 1.0 2.0 0.00 0.00 0.00 39 1002.4
20260502184519 69 0.0 2.0 0.00 0.00 0.00 38 1002.2
20260502183539 70 270 2.0 5.0 0.00 0.00 0.00 36 1002.2
20260502182520 70 225 2.0 5.0 0.00 0.00 0.00 36 1002.1
20260502181519 71 225 2.0 11.0 0.00 0.00 0.00 35 1002.0
20260502180519 71 248 3.0 7.0 0.00 0.00 0.00 34 1002.0
20260502170519 74 248 5.0 12.0 0.00 0.00 0.00 32 1002.0
20260502163519 74 293 7.0 14.0 0.00 0.00 0.00 32 1002.3
20260502162519 74 270 5.0 17.0 0.00 0.00 0.00 31 1002.3
20260502161519 75 248 6.0 14.0 0.00 0.00 0.00 31 1002.4
20260502160523 75 270 4.0 11.0 0.00 0.00 0.00 32 1002.6
20260502151519 75 270 8.0 14.0 0.00 0.00 0.00 30 1003.2
20260502150539 75 270 7.0 14.0 0.00 0.00 0.00 31 1003.4
20260502130539 74 270 7.0 14.0 0.00 0.00 0.00 31 1004.9
20260502123539 73 248 8.0 16.0 0.00 0.00 0.00 32 1005.3
20260502122518 73 248 7.0 16.0 0.00 0.00 0.00 33 1005.4
20260502121518 72 270 7.0 15.0 0.00 0.00 0.00 33 1005.6
20260502120518 72 270 7.0 16.0 0.00 0.00 0.00 33 1005.8
20260502115519 72 270 7.0 19.0 0.00 0.00 0.00 33 1005.8
20260502114518 72 270 7.0 14.0 0.00 0.00 0.00 34 1006.0
20260502113539 72 270 7.0 16.0 0.00 0.00 0.00 34 1006.1
20260502112518 71 270 8.0 18.0 0.00 0.00 0.00 35 1006.2
20260502111539 71 270 7.0 14.0 0.00 0.00 0.00 34 1006.4
20260502110519 71 293 7.0 14.0 0.00 0.00 0.00 35 1006.5
20260502105518 71 248 7.0 14.0 0.00 0.00 0.00 35 1006.7
20260502104523 70 270 8.0 25.0 0.00 0.00 0.00 35 1006.8
20260502103521 70 248 7.0 18.0 0.00 0.00 0.00 35 1007.0
20260502102519 70 248 6.0 14.0 0.00 0.00 0.00 35 1007.0
20260502101519 69 270 8.0 15.0 0.00 0.00 0.00 35 1007.0
20260502100519 69 248 8.0 14.0 0.00 0.00 0.00 36 1007.2
20260502091518 67 270 7.0 16.0 0.00 0.00 0.00 36 1007.7
20260502090519 67 270 7.0 14.0 0.00 0.00 0.00 36 1007.9
20260502071518 62 270 6.0 12.0 0.00 0.00 0.00 40 1009.0
20260502070518 61 270 6.0 13.0 0.00 0.00 0.00 40 1008.9
20260502065518 60 270 7.0 14.0 0.00 0.00 0.00 41 1008.9
20260502064519 60 293 5.0 10.0 0.00 0.00 0.00 41 1009.1
20260502063546 59 270 6.0 13.0 0.00 0.00 0.00 42 1009.0
20260502062539 59 225 6.0 14.0 0.00 0.00 0.00 43 1009.1
20260502061518 58 270 6.0 11.0 0.00 0.00 0.00 44 1009.2
20260502060520 58 270 5.0 15.0 0.00 0.00 0.00 45 1009.2
20260502055520 57 270 6.0 13.0 0.00 0.00 0.00 46 1009.3
20260502054518 57 270 6.0 11.0 0.00 0.00 0.00 47 1009.3
20260502053518 56 270 6.0 13.0 0.00 0.00 0.00 49 1009.3
20260502052520 56 270 6.0 12.0 0.00 0.00 0.00 49 1009.3
20260502051520 55 270 5.0 11.0 0.00 0.00 0.00 51 1009.4
20260502050519 55 270 5.0 10.0 0.00 0.00 0.00 52 1009.4
20260502045521 55 270 6.0 11.0 0.00 0.00 0.00 53 1009.4
20260502044521 54 270 4.0 11.0 0.00 0.00 0.00 54 1009.4
20260502043520 54 248 5.0 10.0 0.00 0.00 0.00 56 1009.5
20260502042518 53 248 4.0 8.0 0.00 0.00 0.00 57 1009.5
20260502041520 53 248 3.0 8.0 0.00 0.00 0.00 58 1009.5
20260502040520 52 270 3.0 7.0 0.00 0.00 0.00 59 1009.6
20260502035520 52 248 2.0 7.0 0.00 0.00 0.00 58 1009.7
20260502034518 52 248 2.0 9.0 0.00 0.00 0.00 58 1009.8
20260502033520 52 270 3.0 7.0 0.00 0.00 0.00 57 1009.9
20260502032520 52 248 4.0 7.0 0.00 0.00 0.00 57 1010.0
20260502031520 52 270 3.0 8.0 0.00 0.00 0.00 58 1010.1
20260502030521 52 248 2.0 6.0 0.00 0.00 0.00 57 1010.2
20260502025520 52 270 2.0 4.0 0.00 0.00 0.00 57 1010.4
20260502024540 53 270 2.0 4.0 0.00 0.00 0.00 56 1010.5
20260502023520 53 248 4.0 7.0 0.00 0.00 0.00 55 1010.5
20260502022519 53 248 3.0 7.0 0.00 0.00 0.00 54 1010.6
20260502021520 53 270 3.0 6.0 0.00 0.00 0.00 54 1010.6
20260502020600 54 270 2.0 4.0 0.00 0.00 0.00 53 1010.7
20260502015520 54 270 3.0 6.0 0.00 0.00 0.00 53 1010.9
20260502014520 54 270 4.0 8.0 0.00 0.00 0.00 52 1010.9
20260502013520 54 270 4.0 7.0 0.00 0.00 0.00 52 1011.0
20260502012524 54 270 3.0 5.0 0.00 0.00 0.00 52 1011.0
20260502011524 55 293 3.0 7.0 0.00 0.00 0.00 51 1011.0
20260502010520 55 270 3.0 6.0 0.00 0.00 0.00 51 1011.0
20260502005520 55 270 4.0 9.0 0.00 0.00 0.00 50 1011.1
20260502004520 56 270 4.0 9.0 0.00 0.00 0.00 49 1011.2
20260502003520 56 270 4.0 8.0 0.00 0.00 0.00 49 1011.3
20260502002520 56 270 3.0 7.0 0.00 0.00 0.00 48 1011.4
20260502001520 56 270 4.0 8.0 0.00 0.00 0.00 47 1011.4
20260502000520 57 270 4.0 10.0 0.00 0.00 0.00 47 1011.5
20260501235544 57 270 4.0 11.0 0.00 0.00 0.00 46 1011.6
20260501234520 57 270 5.0 9.0 0.00 0.00 0.00 46 1011.7
20260501233519 57 270 5.0 10.0 0.00 0.00 0.00 46 1011.7
20260501232519 58 270 6.0 13.0 0.00 0.00 0.00 45 1011.8
20260501231602 58 270 5.0 11.0 0.00 0.00 0.00 45 1011.9
20260501230600 58 270 6.0 13.0 0.00 0.00 0.00 44 1012.0
20260501225519 58 270 6.0 15.0 0.00 0.00 0.00 44 1012.0
20260501224521 58 270 4.0 11.0 0.00 0.00 0.00 44 1012.0
20260501223540 58 270 4.0 10.0 0.00 0.00 0.00 43 1012.1
20260501222520 59 270 5.0 9.0 0.00 0.00 0.00 43 1012.1
20260501221520 59 270 5.0 11.0 0.00 0.00 0.00 42 1012.2
20260501220520 59 270 4.0 9.0 0.00 0.00 0.00 42 1012.2
20260501215519 59 270 5.0 12.0 0.00 0.00 0.00 41 1012.1
20260501214519 60 270 3.0 6.0 0.00 0.00 0.00 41 1012.4
20260501213519 61 270 5.0 9.0 0.00 0.00 0.00 39 1012.4
20260501212542 61 270 7.0 17.0 0.00 0.00 0.00 39 1012.5
20260501211520 61 270 8.0 15.0 0.00 0.00 0.00 39 1012.4
20260501210606 61 270 3.0 8.0 0.00 0.00 0.00 38 1012.5
20260501205519 62 270 5.0 10.0 0.00 0.00 0.00 37 1012.4
20260501204539 62 270 7.0 16.0 0.00 0.00 0.00 36 1012.3
20260501203519 63 293 5.0 12.0 0.00 0.00 0.00 37 1012.4
20260501202519 63 270 5.0 9.0 0.00 0.00 0.00 36 1012.3
20260501201600 63 270 4.0 7.0 0.00 0.00 0.00 37 1012.2
20260501200519 64 248 3.0 6.0 0.00 0.00 0.00 35 1012.2
20260501195519 65 270 6.0 12.0 0.00 0.00 0.00 34 1012.3
20260501194519 65 270 4.0 11.0 0.00 0.00 0.00 36 1012.4
20260501193519 65 293 4.0 8.0 0.00 0.00 0.00 38 1012.5
20260501192519 65 270 2.0 7.0 0.00 0.00 0.00 38 1012.3
20260501191520 65 248 1.0 4.0 0.00 0.00 0.00 37 1012.3